Content
SEND FEEDBACK

Daily
Averages
Monthly
Summary
United Kingdom

LIVERPOOL, ENGLAND


Home > Europe > United Kingdom > England
Elevation: 85 feet     Latitude: 53 20N     Longitude: 002 51W

WEATHER
 
SELECT A DAY
Number of Records: 282,986;   Date Range: 7/1/96 - 7/9/14
 
SHARE

PRINT THIS DATA

[ ← Previous Day ]
WEATHER ALMANAC - JANUARY 29, 2014
[ Next Day → ]
[ °C ]   °F
Weather ElementAverageHighLow
Temperature42.2 °F44.6 °F (10:50 am)39.2 °F (7:50 pm)
Dewpoint37.2 °F41 °F (12:50 am)32 °F (8:20 pm)
Humidity82.6 %93 % (12:50 am)75 % (8:20 pm)
Barometer29.40 in29.65 in (11:20 pm)29.12 in (12:50 am)
Wind Speed15.9 mph23 mph (4:50 pm)
Weather ElementAverage
Visibility6.2 mi
Wind DirectionE (89.6 °)

Weather ElementTotal
Precipitation---
Heating Degree Days23.1 (Base 65)
Averaged from 47 records on January 29, 2014
WEATHER CONDITIONS BREAKOUT
WIND DIRECTION BREAKOUT
WEATHER BY HOUR - JANUARY 29, 2014
[ °C ]   °F
Local TimeTemperatureDewpointHumidityBarometerVisibilityWind DirectionWind SpeedGust SpeedPrecipitationEventsConditions
12:50 AM42.8 °F41.0 °F93 %29.12 in6.2 miEast (100°)15.0 mphRainLight Rain
1:20 AM42.8 °F39.2 °F87 %29.12 in6.2 miESE (110°)15.0 mphRainLight Rain
1:50 AM42.8 °F41.0 °F93 %29.15 in6.2 miESE (110°)15.0 mphRainLight Rain
2:20 AM42.8 °F39.2 °F87 %29.15 in6.2 miEast (100°)15.0 mphMostly Cloudy
2:50 AM42.8 °F39.2 °F87 %29.18 in6.2 miEast (100°)13.8 mphMostly Cloudy
3:20 AM42.8 °F39.2 °F87 %29.18 in6.2 miEast (100°)13.8 mphMostly Cloudy
3:50 AM42.8 °F39.2 °F87 %29.21 in6.2 miEast (100°)15.0 mphMostly Cloudy
4:20 AM42.8 °F39.2 °F87 %29.21 in6.2 miESE (110°)15.0 mphMostly Cloudy
4:50 AM42.8 °F39.2 °F87 %29.21 in6.2 miEast (100°)16.1 mphMostly Cloudy
5:20 AM42.8 °F39.2 °F87 %29.24 in6.2 miESE (110°)16.1 mphMostly Cloudy
5:50 AM42.8 °F39.2 °F87 %29.24 in6.2 miESE (110°)16.1 mphMostly Cloudy
6:20 AM42.8 °F39.2 °F87 %29.27 in6.2 miEast (100°)16.1 mphMostly Cloudy
6:50 AM42.8 °F39.2 °F87 %29.27 in6.2 miEast (100°)15.0 mphMostly Cloudy
7:20 AM42.8 °F37.4 °F81 %29.30 in6.2 miEast (100°)17.3 mphScattered Clouds
7:50 AM42.8 °F39.2 °F87 %29.33 in6.2 miEast (100°)16.1 mphScattered Clouds
8:20 AM42.8 °F39.2 °F87 %29.33 in6.2 miEast (90°)12.7 mphScattered Clouds
8:50 AM42.8 °F39.2 °F87 %29.36 in6.2 miEast (100°)17.3 mphMostly Cloudy
9:20 AM42.8 °F39.2 °F87 %29.36 in6.2 miEast (90°)16.1 mphLight Drizzle
9:50 AM42.8 °F39.2 °F87 %29.39 in6.2 miEast (100°)12.7 mphMostly Cloudy
10:20 AM42.8 °F39.2 °F87 %29.39 in6.2 miEast (90°)11.5 mphMostly Cloudy
10:50 AM44.6 °F39.2 °F81 %29.39 in6.2 miEast (90°)12.7 mphMostly Cloudy
11:20 AM42.8 °F39.2 °F87 %29.42 in6.2 miEast (80°)12.7 mphMostly Cloudy
11:50 AM44.6 °F39.2 °F81 %29.42 in6.2 miENE (70°)10.4 mphMostly Cloudy
12:20 PM44.6 °F39.2 °F81 %29.42 in6.2 miEast (80°)11.5 mphRainLight Rain
12:50 PM44.6 °F39.2 °F81 %29.42 in6.2 miEast (80°)13.8 mphMostly Cloudy
1:20 PM44.6 °F39.2 °F81 %29.42 in6.2 miEast (80°)17.3 mphMostly Cloudy
1:50 PM44.6 °F37.4 °F76 %29.44 in6.2 miEast (80°)18.4 mphMostly Cloudy
2:20 PM44.6 °F37.4 °F76 %29.44 in6.2 miEast (80°)17.3 mphMostly Cloudy
2:50 PM42.8 °F37.4 °F81 %29.44 in6.2 miEast (80°)18.4 mphScattered Clouds
3:20 PM42.8 °F37.4 °F81 %29.47 in6.2 miEast (80°)18.4 mphRainLight Rain
3:50 PM42.8 °F37.4 °F81 %29.47 in6.2 miENE (70°)16.1 mphRainLight Rain
4:20 PM42.8 °F37.4 °F81 %29.50 in6.2 miEast (80°)18.4 mphRainLight Rain
4:50 PM42.8 °F35.6 °F76 %29.50 in6.2 miEast (80°)23.0 mphRainLight Rain
5:20 PM41.0 °F35.6 °F81 %29.50 in6.2 miEast (80°)20.7 mphRainLight Rain
5:50 PM41.0 °F37.4 °F87 %29.53 in6.2 miEast (80°)16.1 mphRainLight Rain
6:20 PM41.0 °F35.6 °F81 %29.53 in6.2 miEast (80°)18.4 mphScattered Clouds
6:50 PM41.0 °F35.6 °F81 %29.56 in6.2 miENE (70°)17.3 mphScattered Clouds
7:20 PM41.0 °F35.6 °F81 %29.56 in6.2 miENE (70°)18.4 mphScattered Clouds
7:50 PM39.2 °F33.8 °F81 %29.59 in6.2 miENE (70°)19.6 mphMostly Cloudy
8:20 PM39.2 °F32.0 °F75 %29.59 in6.2 miEast (80°)21.9 mphMostly Cloudy
8:50 PM39.2 °F32.0 °F75 %29.59 in6.2 miEast (90°)18.4 mphMostly Cloudy
9:20 PM39.2 °F32.0 °F75 %29.59 in6.2 miEast (90°)18.4 mphMostly Cloudy
9:50 PM39.2 °F32.0 °F75 %29.62 in6.2 miEast (90°)18.4 mphMostly Cloudy
10:20 PM39.2 °F32.0 °F75 %29.62 in6.2 miEast (90°)15.0 mphMostly Cloudy
10:50 PM39.2 °F32.0 °F75 %29.62 in6.2 miEast (90°)15.0 mphMostly Cloudy
11:20 PM39.2 °F32.0 °F75 %29.65 in6.2 miEast (90°)12.7 mphMostly Cloudy
11:50 PM39.2 °F32.0 °F75 %29.65 in6.2 miEast (90°)9.2 mphMostly Cloudy
Hourly data recorded from EGGP, located miles away from Liverpool, England







STORIES FROM OUR PARTNERS